Location: Bazincourt
(49.5016°N, 1.8100°E)
Time: 22:39:37
(UTC+00:00)

Cosmos 2227 Rocket - Pass Details

Date: 13 December 2025
Orbit: 836 x 846 km, 71.0° (Epoch: 10 April)

Event Time Altitude Azimuth Distance (km) Brightness Sun altitude
Rises 16:24:59 0° 333° (NNW) 3,398 5.3 -5.2°
Reaches altitude 10° 16:27:30 10° 338° (NNW) 2,460 4.6 -5.5°
Maximum altitude 16:33:02 55° 55° (NE) 1,005 2.3 -6.3°
Drops below altitude 10° 16:38:32 10° 134° (SE) 2,450 4.4 -7.1°
Sets 16:41:02 0° 138° (SE) 3,382 5.2 -7.4°
